Showing default

OPS 9323 (IDSCS 10), 2650

Orbit data source: Space-Track

OPS 9323 (IDSCS 10), 2650 is a payload satellite owned by USAF SSD (US) in GEO that was launched on Wed, 18 Jan 1967 UTC via a TITAN IIIC launch vehicle from the Air Force Eastern Test Range (AFETR). Payload-class satellites include a variety of spacecraft equipped with specific instruments for various scientific and technological missions. These include communications satellites like Starlink; space stations such as the ISS; scientific satellites like the Hubble; Earth observation satellites from companies like Planet Labs, Umbra, and HawkEye 360; GPS; miniature CubeSats for education and research; and military/defense satellites.

Loading next visibility...
Identifier
2650, 1967-003C
Orbit
GEO
Country
Flag of USUS
Related business
Manufacturer
Philco-Ford WDL
Mission
Non-operational spacecraft
Bus & Motor
IDCSP, Unknown motor
Mass
45 kg wet, 45 kg dry
Launch date (UTC)
1967-01-18 (59 years ago)
Launch vehicle
TITAN IIIC
Launch site
Air Force Eastern Test Range (AFETR)
Object type
Payload
Rocket body
Debris
Shape & HBR
Unknown
Radar Cross Section
Medium (>0.1 m² and <1 m²)

Expand to show TLE details & history
Last TLE update: 1 day ago

TLE from 1 day ago
0 OPS 9323 (IDSCS 10)
1 02650U 67003C   26012.24503223 -.00000070  00000-0  00000-0 0  9999
2 02650   7.9997  46.1977 0032542 111.0086 243.9623  1.08221650138751
Epoch: 2026-01-12T05:52Z
TLE epoch observation values (Epoch: 2026-01-12T05:52:50.784Z)
Latitude
-0.74716°
Longitude
-159.06134°
Altitude
33,752.158 km
Speed
3.149 km/s
True Right ascension
02h 43m 34s
True Declination
0° 44' 47"
Sunlit
Object was in daylight at epoch
Visualization orbit readout
Latitude
Unknown
Longitude
Unknown
Altitude
Unknown
Speed
Unknown
Apparent Right ascension
Unknown
Apparent Declination
Unknown
Sunlit
N/A
Visualization observer readout
Local Sidereal Time
07:01:22
Azimuth
Unknown
Elevation
Unknown
Doppler factor
Unknown
Orbital elements
Apogee altitude
33,827.032 km
Perigee altitude
33,566.209 km
Semi-major axis
40,074.758 km
Eccentricity
0.00325
Inclination
7.9997°
RAAN
46.1977°
Arg. of periapsis
111.0086°
True anomaly
243.62784°
Mean anomaly
243.9623°
Eccentric anomaly
243.79501°
Mean motion
0.27054 °/min
Orbital period
1,330.66 mins
BSTAR
0
Loading maneuver chart data...
Computing Atmospheric mass density...
Loading historical data...
Loading historical data...
Loading historical data...
Loading historical data...
Loading historical data...
Loading historical data...
Loading historical data...

Documentation

Showing up to 5 results
|